Location: Fuglau
(48.6333°N, 15.5500°E)
Time: 07:46:39
(UTC+00:00)

Meteor 2-4 Rocket - Pass Details

Date: 27 February 2020
Orbit: 799 x 908 km, 81.2° (Epoch: 31 March)

Event Time Altitude Azimuth Distance (km) Brightness Sun altitude
Rises 18:48:44 0° 346° (NNW) 3,531 7.3 -22.4°
Reaches altitude 10° 18:51:13 10° 344° (NNW) 2,594 6.6 -22.8°
Maximum altitude 18:57:06 68° 263° (W) 976 4.1 -23.7°
Drops below altitude 10° 19:02:58 10° 181° (S) 2,583 6.1 -24.6°
Enters shadow 19:03:43 - 181° (S) 2,868 6.3 -24.7°
